| time (UTC) | temp F | wind direction | speed knots | gust knots | rain 1hr in | rain 24hr in | rain mn in | humidity % | barometer mb |
| 20260505093030 | 45 | 106 | 0.0 | 1.7 | 0.00 | 0.00 | 0.00 | 99 | 1013.9 |
| 20260505092527 | 45 | 157 | 1.7 | 2.6 | 0.00 | 0.00 | 0.00 | 99 | 1013.8 |
| 20260505092026 | 45 | 155 | 1.7 | 1.7 | 0.00 | 0.00 | 0.00 | 99 | 1014.0 |
| 20260505091522 | 45 | 141 | 1.7 | 1.7 | 0.00 | 0.00 | 0.00 | 99 | 1014.0 |
| 20260505091020 | 45 | 149 | 1.7 | 1.7 | 0.00 | 0.00 | 0.00 | 99 | 1013.7 |
| 20260505090518 | 46 | 146 | 1.7 | 1.7 | 0.00 | 0.00 | 0.00 | 99 | 1014.1 |
| 20260505090016 | 46 | 110 | 0.0 | 1.7 | 0.00 | 0.00 | 0.00 | 98 | 1013.9 |
| 20260505085514 | 46 | 125 | 1.7 | 1.7 | 0.00 | 0.00 | 0.00 | 99 | 1013.8 |
| 20260505085012 | 46 | 157 | 1.7 | 1.7 | 0.00 | 0.00 | 0.00 | 99 | 1013.8 |
| 20260505084510 | 46 | 118 | 0.9 | 1.7 | 0.00 | 0.00 | 0.00 | 98 | 1013.9 |
| 20260505084007 | 46 | 128 | 1.7 | 1.7 | 0.00 | 0.00 | 0.00 | 98 | 1013.8 |
| 20260505083504 | 46 | 134 | 1.7 | 1.7 | 0.00 | 0.00 | 0.00 | 98 | 1013.5 |
| 20260505083000 | 46 | 144 | 1.7 | 1.7 | 0.00 | 0.00 | 0.00 | 98 | 1013.8 |
| 20260505082456 | 46 | 113 | 0.9 | 1.7 | 0.00 | 0.00 | 0.00 | 98 | 1013.8 |
| 20260505081953 | 46 | 132 | 1.7 | 1.7 | 0.00 | 0.00 | 0.00 | 98 | 1013.7 |
| 20260505081450 | 46 | 134 | 1.7 | 1.7 | 0.00 | 0.00 | 0.00 | 98 | 1013.6 |
| 20260505080946 | 46 | 131 | 0.9 | 1.7 | 0.00 | 0.00 | 0.00 | 98 | 1013.6 |
| 20260505080443 | 47 | 139 | 1.7 | 1.7 | 0.00 | 0.00 | 0.00 | 98 | 1013.5 |
| 20260505075938 | 47 | 115 | 1.7 | 1.7 | 0.00 | 0.00 | 0.00 | 98 | 1013.7 |
| 20260505075435 | 47 | 146 | 0.9 | 1.7 | 0.00 | 0.00 | 0.00 | 98 | 1013.6 |
| 20260505074933 | 47 | 129 | 1.7 | 1.7 | 0.00 | 0.00 | 0.00 | 98 | 1013.8 |
| 20260505074430 | 47 | 186 | 0.0 | 1.7 | 0.00 | 0.00 | 0.00 | 98 | 1013.4 |
| 20260505073927 | 47 | 148 | 1.7 | 1.7 | 0.00 | 0.00 | 0.00 | 97 | 1013.4 |
| 20260505073425 | 47 | 144 | 1.7 | 1.7 | 0.00 | 0.00 | 0.00 | 97 | 1013.3 |
| 20260505072921 | 48 | 154 | 1.7 | 1.7 | 0.00 | 0.00 | 0.00 | 97 | 1013.3 |
| 20260505072417 | 48 | 141 | 0.9 | 0.9 | 0.00 | 0.00 | 0.00 | 97 | 1013.3 |
| 20260505071914 | 48 | 117 | 0.9 | 1.7 | 0.00 | 0.00 | 0.00 | 97 | 1013.1 |
| 20260505071410 | 48 | 124 | 0.9 | 1.7 | 0.00 | 0.00 | 0.00 | 96 | 1013.2 |
| 20260505070908 | 48 | 130 | 0.0 | 0.9 | 0.00 | 0.00 | 0.00 | 96 | 1013.3 |
| 20260505070404 | 49 | 98 | 1.7 | 1.7 | 0.00 | 0.00 | 0.00 | 96 | 1013.2 |
| 20260505065900 | 49 | 110 | 1.7 | 1.7 | 0.00 | 0.00 | 0.00 | 96 | 1012.9 |
| 20260505065357 | 49 | 69 | 0.0 | 0.0 | 0.00 | 0.00 | 0.00 | 96 | 1012.8 |
| 20260505064854 | 49 | 137 | 0.9 | 2.6 | 0.00 | 0.00 | 0.00 | 96 | 1013.0 |
| 20260505064351 | 49 | 115 | 0.9 | 1.7 | 0.00 | 0.00 | 0.00 | 95 | 1012.9 |
| 20260505063850 | 49 | 114 | 0.9 | 1.7 | 0.00 | 0.00 | 0.00 | 95 | 1012.7 |
| 20260505063345 | 49 | 113 | 0.0 | 1.7 | 0.00 | 0.00 | 0.00 | 95 | 1012.9 |
| 20260505062842 | 50 | 76 | 0.0 | 1.7 | 0.00 | 0.00 | 0.00 | 95 | 1012.8 |
| 20260505062339 | 50 | 120 | 1.7 | 1.7 | 0.00 | 0.00 | 0.00 | 95 | 1012.8 |
| 20260505061836 | 50 | 130 | 2.6 | 2.6 | 0.00 | 0.00 | 0.00 | 94 | 1012.6 |
| 20260505061334 | 50 | 106 | 0.9 | 1.7 | 0.00 | 0.00 | 0.00 | 94 | 1012.7 |
| 20260505060831 | 50 | 130 | 1.7 | 1.7 | 0.00 | 0.00 | 0.00 | 94 | 1012.6 |
| 20260505060328 | 51 | 224 | 0.0 | 0.9 | 0.00 | 0.00 | 0.00 | 93 | 1012.6 |
| 20260505055824 | 51 | 92 | 1.7 | 1.7 | 0.00 | 0.00 | 0.00 | 93 | 1012.6 |
| 20260505055320 | 51 | 79 | 1.7 | 1.7 | 0.00 | 0.00 | 0.00 | 93 | 1012.3 |
| 20260505054818 | 51 | 108 | 1.7 | 1.7 | 0.00 | 0.00 | 0.00 | 92 | 1012.3 |
| 20260505054315 | 51 | 80 | 1.7 | 1.7 | 0.00 | 0.00 | 0.00 | 92 | 1012.3 |
| 20260505053813 | 51 | 113 | 0.9 | 0.9 | 0.00 | 0.00 | 0.00 | 92 | 1012.3 |
| 20260505053310 | 52 | 126 | 1.7 | 1.7 | 0.00 | 0.00 | 0.00 | 91 | 1012.2 |
| 20260505052806 | 52 | 38 | 0.0 | 1.7 | 0.00 | 0.00 | 0.00 | 91 | 1012.1 |
| 20260505052304 | 52 | 89 | 0.0 | 0.9 | 0.00 | 0.00 | 0.00 | 90 | 1012.0 |
| 20260505051800 | 52 | 107 | 0.9 | 2.6 | 0.00 | 0.00 | 0.00 | 90 | 1012.0 |
| 20260505051258 | 53 | 22 | 0.0 | 1.7 | 0.00 | 0.00 | 0.00 | 89 | 1012.1 |
| 20260505050756 | 53 | 116 | 1.7 | 1.7 | 0.00 | 0.00 | 0.00 | 89 | 1011.9 |
| 20260505050254 | 53 | 99 | 1.7 | 1.7 | 0.00 | 0.00 | 0.00 | 88 | 1012.0 |
| 20260505041728 | 55 | 63 | 1.7 | 2.6 | 0.00 | 0.00 | 0.00 | 83 | 1011.5 |
| 20260505041226 | 56 | 57 | 1.7 | 1.7 | 0.00 | 0.00 | 0.00 | 83 | 1011.2 |
| 20260505040723 | 56 | 43 | 1.7 | 1.7 | 0.00 | 0.00 | 0.00 | 82 | 1011.4 |
| 20260505040220 | 57 | 34 | 0.9 | 1.7 | 0.00 | 0.00 | 0.00 | 81 | 1011.4 |
| 20260505035717 | 57 | 36 | 0.0 | 2.6 | 0.00 | 0.00 | 0.00 | 81 | 1011.6 |
| 20260505035213 | 57 | 43 | 1.7 | 1.7 | 0.00 | 0.00 | 0.00 | 82 | 1011.2 |
| 20260505034710 | 58 | 93 | 0.9 | 1.7 | 0.00 | 0.00 | 0.00 | 81 | 1011.2 |
| 20260505034207 | 58 | 63 | 1.7 | 1.7 | 0.00 | 0.00 | 0.00 | 81 | 1011.2 |
| 20260505033703 | 59 | 227 | 0.9 | 1.7 | 0.00 | 0.00 | 0.00 | 80 | 1011.2 |
| 20260505033201 | 59 | 145 | 0.0 | 0.9 | 0.00 | 0.00 | 0.00 | 80 | 1011.1 |
| 20260505032659 | 60 | 51 | 0.0 | 0.9 | 0.00 | 0.00 | 0.00 | 79 | 1011.2 |
| 20260505032155 | 60 | 243 | 0.0 | 0.0 | 0.00 | 0.00 | 0.00 | 77 | 1011.1 |
| 20260505031652 | 61 | 103 | 0.0 | 1.7 | 0.00 | 0.00 | 0.00 | 74 | 1011.1 |
| 20260505031149 | 62 | 105 | 1.7 | 3.5 | 0.00 | 0.00 | 0.00 | 71 | 1011.0 |
| 20260505030646 | 62 | 136 | 2.6 | 3.5 | 0.00 | 0.00 | 0.00 | 72 | 1011.0 |
| 20260505030141 | 63 | 44 | 0.0 | 2.6 | 0.00 | 0.00 | 0.00 | 71 | 1011.0 |
| 20260505025637 | 63 | 36 | 0.9 | 1.7 | 0.00 | 0.00 | 0.00 | 68 | 1011.1 |
| 20260505025136 | 64 | 56 | 1.7 | 1.7 | 0.00 | 0.00 | 0.00 | 67 | 1011.0 |
| 20260505024633 | 65 | 102 | 0.9 | 1.7 | 0.00 | 0.00 | 0.00 | 65 | 1011.1 |
| 20260505024130 | 65 | 48 | 0.9 | 2.6 | 0.00 | 0.00 | 0.00 | 66 | 1011.1 |
| 20260505023628 | 66 | 37 | 1.7 | 1.7 | 0.00 | 0.00 | 0.00 | 63 | 1011.0 |
| 20260505023125 | 66 | 37 | 1.7 | 2.6 | 0.00 | 0.00 | 0.00 | 64 | 1010.9 |
| 20260505022622 | 66 | 50 | 0.9 | 1.7 | 0.00 | 0.00 | 0.00 | 63 | 1011.0 |
| 20260505022119 | 67 | 9 | 1.7 | 1.7 | 0.00 | 0.00 | 0.00 | 62 | 1010.7 |
| 20260505021616 | 67 | 64 | 0.9 | 1.7 | 0.00 | 0.00 | 0.00 | 61 | 1010.8 |
| 20260505021113 | 67 | 45 | 1.7 | 1.7 | 0.00 | 0.00 | 0.00 | 61 | 1010.8 |
| 20260505020608 | 67 | 59 | 0.9 | 1.7 | 0.00 | 0.00 | 0.00 | 60 | 1011.2 |
| 20260505020105 | 68 | 42 | 1.7 | 2.6 | 0.00 | 0.00 | 0.00 | 59 | 1011.2 |
| 20260505015602 | 69 | 348 | 0.0 | 1.7 | 0.00 | 0.00 | 0.00 | 58 | 1011.1 |
| 20260505015058 | 70 | 188 | 0.0 | 3.5 | 0.00 | 0.00 | 0.00 | 59 | 1011.2 |
| 20260505014555 | 70 | 333 | 0.0 | 1.7 | 0.00 | 0.00 | 0.00 | 56 | 1011.2 |
| 20260505014052 | 69 | 40 | 1.7 | 1.7 | 0.00 | 0.00 | 0.00 | 57 | 1011.2 |
| 20260505013549 | 69 | 34 | 0.9 | 1.7 | 0.00 | 0.00 | 0.00 | 57 | 1011.2 |
| 20260505013047 | 70 | 39 | 0.9 | 1.7 | 0.00 | 0.00 | 0.00 | 55 | 1011.2 |
| 20260505012545 | 70 | 0 | 0.0 | 1.7 | 0.00 | 0.00 | 0.00 | 55 | 1011.1 |
| 20260505012042 | 70 | 2 | 0.0 | 2.6 | 0.00 | 0.00 | 0.00 | 55 | 1011.2 |
| 20260505011537 | 72 | 59 | 0.0 | 2.6 | 0.00 | 0.00 | 0.00 | 53 | 1011.5 |
| 20260505011035 | 72 | 357 | 0.9 | 2.6 | 0.00 | 0.00 | 0.00 | 54 | 1011.6 |
| 20260505010530 | 72 | 212 | 0.0 | 0.9 | 0.00 | 0.00 | 0.00 | 55 | 1011.3 |
| 20260505010027 | 70 | 233 | 1.7 | 1.7 | 0.00 | 0.00 | 0.00 | 57 | 1011.5 |
| 20260505005523 | 71 | 72 | 0.9 | 2.6 | 0.00 | 0.00 | 0.00 | 55 | 1011.5 |
| 20260505005021 | 71 | 15 | 1.7 | 2.6 | 0.00 | 0.00 | 0.00 | 56 | 1011.3 |
| 20260505004517 | 72 | 32 | 2.6 | 2.6 | 0.00 | 0.00 | 0.00 | 56 | 1011.1 |
| 20260505004014 | 71 | 111 | 5.2 | 5.2 | 0.00 | 0.00 | 0.00 | 55 | 1011.0 |
| 20260505003511 | 73 | 38 | 2.6 | 2.6 | 0.00 | 0.00 | 0.00 | 54 | 1011.0 |
| 20260505003009 | 73 | 30 | 0.9 | 1.7 | 0.00 | 0.00 | 0.00 | 54 | 1011.3 |
| 20260505002504 | 73 | 27 | 1.7 | 1.7 | 0.00 | 0.00 | 0.00 | 54 | 1011.1 |
| 20260505002003 | 73 | 45 | 2.6 | 4.3 | 0.00 | 0.00 | 0.00 | 53 | 1011.2 |
| 20260505001500 | 73 | 77 | 1.7 | 2.6 | 0.00 | 0.00 | 0.00 | 53 | 1011.1 |
| 20260505000956 | 72 | 40 | 1.7 | 3.5 | 0.00 | 0.00 | 0.00 | 54 | 1011.1 |
| 20260505000454 | 73 | 26 | 1.7 | 3.5 | 0.00 | 0.00 | 0.00 | 53 | 1011.3 |
| 20260504235951 | 73 | 79 | 2.6 | 2.6 | 0.00 | 0.00 | 0.00 | 52 | 1011.1 |
| 20260504235448 | 73 | 359 | 1.7 | 1.7 | 0.00 | 0.00 | 0.00 | 52 | 1011.4 |
| 20260504234945 | 74 | 271 | 1.7 | 2.6 | 0.00 | 0.00 | 0.00 | 55 | 1011.3 |
| 20260504234442 | 74 | 294 | 1.7 | 1.7 | 0.00 | 0.00 | 0.00 | 55 | 1011.4 |
| 20260504233938 | 74 | 331 | 0.9 | 1.7 | 0.00 | 0.00 | 0.00 | 55 | 1011.5 |
| 20260504233434 | 73 | 107 | 2.6 | 2.6 | 0.00 | 0.00 | 0.00 | 52 | 1011.4 |
| 20260504232931 | 73 | 49 | 3.5 | 4.3 | 0.00 | 0.00 | 0.00 | 51 | 1011.5 |
| 20260504232428 | 74 | 64 | 0.9 | 2.6 | 0.00 | 0.00 | 0.00 | 50 | 1011.3 |
| 20260504231925 | 75 | 340 | 1.7 | 3.5 | 0.00 | 0.00 | 0.00 | 49 | 1011.5 |
| 20260504231422 | 74 | 103 | 2.6 | 2.6 | 0.00 | 0.00 | 0.00 | 52 | 1011.3 |
| 20260504230918 | 75 | 245 | 5.2 | 5.2 | 0.00 | 0.00 | 0.00 | 48 | 1011.4 |
| 20260504230415 | 74 | 132 | 1.7 | 2.6 | 0.00 | 0.00 | 0.00 | 48 | 1011.6 |
| 20260504225914 | 74 | 142 | 0.0 | 1.7 | 0.00 | 0.00 | 0.00 | 49 | 1011.5 |
| 20260504225410 | 73 | 46 | 2.6 | 3.5 | 0.00 | 0.00 | 0.00 | 51 | 1011.6 |
| 20260504224908 | 73 | 22 | 1.7 | 3.5 | 0.00 | 0.00 | 0.00 | 51 | 1011.7 |
| 20260504224404 | 73 | 41 | 2.6 | 3.5 | 0.00 | 0.00 | 0.00 | 50 | 1011.7 |
| 20260504223902 | 73 | 231 | 4.3 | 6.1 | 0.00 | 0.00 | 0.00 | 53 | 1011.9 |
| 20260504223356 | 73 | 217 | 3.5 | 4.3 | 0.00 | 0.00 | 0.00 | 54 | 1011.6 |
| 20260504222853 | 73 | 346 | 1.7 | 6.1 | 0.00 | 0.00 | 0.00 | 53 | 1011.8 |
| 20260504222350 | 72 | 76 | 1.7 | 2.6 | 0.00 | 0.00 | 0.00 | 51 | 1011.8 |
| 20260504221849 | 73 | 343 | 2.6 | 5.2 | 0.00 | 0.00 | 0.00 | 51 | 1011.8 |
| 20260504221345 | 74 | 93 | 0.0 | 4.3 | 0.00 | 0.00 | 0.00 | 50 | 1011.8 |
| 20260504220842 | 73 | 293 | 3.5 | 5.2 | 0.00 | 0.00 | 0.00 | 53 | 1011.9 |
| 20260504220338 | 73 | 107 | 1.7 | 2.6 | 0.00 | 0.00 | 0.00 | 49 | 1011.8 |
| 20260504215836 | 74 | 329 | 1.7 | 1.7 | 0.00 | 0.00 | 0.00 | 50 | 1011.9 |
| 20260504215332 | 74 | 28 | 0.0 | 2.6 | 0.00 | 0.00 | 0.00 | 52 | 1012.0 |
| 20260504214828 | 75 | 200 | 3.5 | 4.3 | 0.00 | 0.00 | 0.00 | 50 | 1012.0 |
| 20260504214326 | 74 | 58 | 0.0 | 1.7 | 0.00 | 0.00 | 0.00 | 51 | 1012.1 |
| 20260504213822 | 73 | 30 | 3.5 | 5.2 | 0.00 | 0.00 | 0.00 | 50 | 1012.0 |
| 20260504213318 | 73 | 40 | 1.7 | 2.6 | 0.00 | 0.00 | 0.00 | 50 | 1012.1 |
| 20260504212815 | 75 | 74 | 2.6 | 3.5 | 0.00 | 0.00 | 0.00 | 48 | 1012.1 |
| 20260504212311 | 73 | 43 | 2.6 | 3.5 | 0.00 | 0.00 | 0.00 | 50 | 1012.2 |
| 20260504211809 | 72 | 54 | 1.7 | 2.6 | 0.00 | 0.00 | 0.00 | 50 | 1012.3 |
| 20260504211305 | 72 | 42 | 2.6 | 3.5 | 0.00 | 0.00 | 0.00 | 52 | 1012.4 |
| 20260504210803 | 74 | 111 | 0.9 | 2.6 | 0.00 | 0.00 | 0.00 | 50 | 1012.0 |
| 20260504210300 | 74 | 216 | 4.3 | 4.3 | 0.00 | 0.00 | 0.00 | 49 | 1012.1 |
| 20260504205757 | 72 | 92 | 2.6 | 5.2 | 0.00 | 0.00 | 0.00 | 52 | 1012.1 |
| 20260504205254 | 73 | 47 | 0.0 | 2.6 | 0.00 | 0.00 | 0.00 | 51 | 1012.1 |
| 20260504204752 | 71 | 57 | 2.6 | 3.5 | 0.00 | 0.00 | 0.00 | 50 | 1012.0 |
| 20260504204251 | 72 | 62 | 1.7 | 3.5 | 0.00 | 0.00 | 0.00 | 49 | 1012.1 |
| 20260504203750 | 73 | 47 | 2.6 | 2.6 | 0.00 | 0.00 | 0.00 | 49 | 1012.0 |
| 20260504203246 | 73 | 18 | 1.7 | 2.6 | 0.00 | 0.00 | 0.00 | 49 | 1012.1 |
| 20260504202741 | 73 | 25 | 0.0 | 1.7 | 0.00 | 0.00 | 0.00 | 50 | 1011.9 |
| 20260504202239 | 74 | 314 | 0.9 | 3.5 | 0.00 | 0.00 | 0.00 | 47 | 1012.0 |
| 20260504201736 | 75 | 355 | 0.9 | 1.7 | 0.00 | 0.00 | 0.00 | 47 | 1012.0 |
| 20260504201233 | 75 | 353 | 2.6 | 2.6 | 0.00 | 0.00 | 0.00 | 46 | 1012.1 |
| 20260504200731 | 74 | 14 | 0.0 | 2.6 | 0.00 | 0.00 | 0.00 | 45 | 1012.0 |
| 20260504200226 | 74 | 347 | 0.0 | 2.6 | 0.00 | 0.00 | 0.00 | 47 | 1012.1 |
| 20260504195723 | 74 | 352 | 1.7 | 3.5 | 0.00 | 0.00 | 0.00 | 45 | 1012.2 |
| 20260504195219 | 74 | 269 | 3.5 | 6.1 | 0.00 | 0.00 | 0.00 | 52 | 1012.3 |
| 20260504194716 | 73 | 231 | 7.0 | 7.8 | 0.00 | 0.00 | 0.00 | 48 | 1012.2 |
| 20260504194212 | 74 | 237 | 2.6 | 7.0 | 0.00 | 0.00 | 0.00 | 48 | 1012.0 |
| 20260504193709 | 75 | 48 | 2.6 | 2.6 | 0.00 | 0.00 | 0.00 | 45 | 1012.0 |
| 20260504193206 | 76 | 33 | 1.7 | 2.6 | 0.00 | 0.00 | 0.00 | 44 | 1012.0 |
| 20260504192704 | 75 | 72 | 1.7 | 3.5 | 0.00 | 0.00 | 0.00 | 43 | 1012.1 |
| 20260504192202 | 76 | 105 | 0.0 | 3.5 | 0.00 | 0.00 | 0.00 | 43 | 1012.0 |
| 20260504191701 | 76 | 252 | 3.5 | 3.5 | 0.00 | 0.00 | 0.00 | 47 | 1012.2 |
| 20260504191156 | 75 | 174 | 2.6 | 7.0 | 0.00 | 0.00 | 0.00 | 41 | 1011.9 |
| 20260504190652 | 75 | 252 | 7.8 | 10.4 | 0.00 | 0.00 | 0.00 | 41 | 1011.9 |
| 20260504190148 | 75 | 233 | 5.2 | 7.8 | 0.00 | 0.00 | 0.00 | 46 | 1012.1 |